CubeBel-2 (EU11S)
1 57175U 23091K   24202.84536726  .00012060  00000-0  76683-3 0  9993
2 57175  97.6093 254.5448 0015089  24.6531 335.5415 15.08874682 58566
VERONIKA
1 58261U 23174F   24202.79483401  .00028068  00000-0  12051-2 0  9990
2 58261  97.4599 277.2970 0013145 125.3285 234.9183 15.22584413 38827
KAFASAT
1 58317U 23174BP  24202.79973946  .00036654  00000-0  14086-2 0  9990
2 58317  97.4545 278.0240 0011720 104.9928 255.2609 15.26270834 38881
ENSO
1 58470U 23185J   24202.82186725  .00024639  00000-0  10006-2 0  9995
2 58470  97.4251 269.2123 0013314 156.6116 203.5729 15.24490785 35266
EIRSAT-1
1 58472U 23185L   24202.84700079  .00029614  00000-0  11765-2 0  9994
2 58472  97.4248 269.3089 0012927 157.1042 203.0775 15.25194216 35277
SO-121
1 58567U 23174CY  24202.18185662  .00073019  00000-0  22207-2 0  9990
2 58567  97.4530 278.0934 0011420 118.8406 241.3984 15.33693464 38837
SONATE-2
1 59112U 24043Q   24202.30490500  .00016016  00000-0  75611-3 0  9999
2 59112  97.4818 325.8085 0015078 175.2785 184.8594 15.19421683 20836
KASHIWA
1 59508U 98067WH  24202.20387380  .00408871  00000-0  18511-2 0  9994
2 59508  51.6250 141.8223 0008470 104.0370 256.1574 15.82240173 15697
MESAT1
1 60209U 24125G   24199.12255324  .00015234  00000-0  71734-3 0  9990
2 60209  97.3222  51.6252 0025796 215.8933 144.0569 15.19321115  1969
GRBBeta
1 60236U 24128B   24202.55100194  .00004180  00000-0  37914-3 0  9999
2 60236  61.9950 124.5888 0010206 285.3165  74.6795 14.96849474  1605
ROBUSTA-3A
1 60243U 24128J   24202.55919176  .00010122  00000-0  91750-3 0  9996
2 60243  61.9927 124.6202 0012772 257.8704 102.0953 14.95770718  1606
CatSat
1 60246U 24125J   24198.68755259  .00037208  00000-0  17068-2 0  9997
2 60246  97.3064  52.5632 0053597 170.9140 276.8737 15.19027249    14
